Simultaneous Nadir Overpasses (SNOs) Predictions

Prediction of SNOs between GOES-15 and METOP-A Satellite Orbit:

Table of predicted SNOs for the next 14.0 days since TLE Epoch: 7/25/2014
Index Date Time (GOES-15) GOES-15 Lat,Lon METOP-A Lat,Lon Distance(km) Time Diff (sec)
1 07/26/2014 06:13:41 0.03,-135.39 0.94,-131.43 452.08 80
2 07/27/2014 18:35:13 -0.00,-135.42 0.10,-135.99 63.93 80
3 07/30/2014 06:33:36 -0.00,-135.46 -0.04,-135.59 14.75 80
4 08/01/2014 18:29:11 0.01,-135.49 -0.09,-135.16 38.54 80
5 08/03/2014 06:50:51 -0.04,-135.50 -1.02,-139.74 483.63 80
6 08/04/2014 06:27:34 -0.02,-135.51 0.16,-134.76 85.67 80
7 08/05/2014 18:49:06 0.05,-135.52 0.88,-139.32 432.16 80
8 08/06/2014 18:25:47 0.03,-135.52 -0.24,-134.33 136.43 80
9 08/08/2014 06:47:29 -0.06,-135.52 -0.80,-138.92 387.26 80




NCC Satellite Simultaneous Nadir Overpasses (SNOs) Prediction Service
